Torna al catalogo

STARLINK-31504

AttivoComunicazioniVLEO
NORAD 59303·PAYLOAD·🇺🇸 United States

Lanciato Mar 24, 2024 da Cape Canaveral Space Force Station

Loading…

Prossimi Passaggi (prossime 24 ore)

TLE

AggiornatoSource: CelesTrak SupGP

Epoca: Sep 15, 2026, 02:02 UTC

1 59303C 24056H   26258.08520833 -.00020980  00000+0 -76000-3 0  2583
2 59303  42.9994 241.2158 0001215 264.9395 273.5029 15.27583873    17

Traccia STARLINK-31504 in tempo reale con AllMySat

Download on the App Store